Weather History for KBFD - October, 2011

Change the Weather History Date:

Thursday, October 27, 2011

  Actual Average Record
Temperature  
Mean Temperature 40 °F 43 °F  
Max Temperature 48 °F 53 °F 72 °F (1963)
Min Temperature 28 °F 34 °F 12 °F (1976)
Degree Days  
Heating Degree Days 26 17  
Month to date heating degree days 365  
Since 1 July heating degree days 782  
Cooling Degree Days 0 0  
Month to date cooling degree days 0  
Year to date cooling degree days 192  
Moisture  
Dew Point 34 °F    
Average Humidity 90    
Maximum Humidity 93    
Minimum Humidity 86    
Precipitation  
Precipitation 0.38 in 0.11 in 1.87 in (1981)
Month to date precipitation 3.00  
Year to date precipitation 36.87  
Sea Level Pressure  
Sea Level Pressure 29.81 in    
Wind  
Wind Speed 7 mph (North)    
Max Wind Speed 12 mph    
Max Gust Speed 17 mph    
Visibility 5 miles    
Events Fog , Rain , Snow    
T = Trace of Precipitation, MM = Missing Value Source: NWS Daily Summary

Daily Weather History Graph

Daily Weather History Graph

Search for Another Location

Airport or City:

Trip Planner

Search our weather history database for the weather conditions in past years. The results will help you decide how hot, cold, wet, or windy it might be!

Date:

Astronomy

Oct. 27, 2011 Rise Set
Actual Time 7:40 AM EDT 6:15 PM EDT
Civil Twilight 7:11 AM EDT 6:44 PM EDT
Nautical Twilight 6:39 AM EDT 7:16 PM EDT
Astronomical Twilight 6:06 AM EDT 7:49 PM EDT
Moon 8:43 AM EDT (10/27) 6:41 PM EDT (10/27)
Length of Visible Light 11h 32m
Length of Day
10h 35m
New Moon, 1% of the Moon is Illuminated
Oct 27
New Moon
Nov 2
First Quarter
Nov 10
Full
Nov 18
Last Quarter
Nov 25
New

Hourly Weather History & Observations

Time (EDT) Temp. Windchill Dew Point Humidity Pressure Visibility Wind Dir Wind Speed Gust Speed Precip Events Conditions
12:07 AM 51.8 °F - 48.2 °F 88% 29.72 in 1.8 mi NW 4.6 mph - 0.04 in Rain Heavy Rain
12:32 AM 51.8 °F - 48.2 °F 88% 29.72 in 2.5 mi NW 5.8 mph - 0.13 in Rain Rain
12:47 AM 50.0 °F - 46.4 °F 87% 29.73 in 3.0 mi NNW 10.4 mph - 0.20 in Rain Heavy Rain
12:53 AM 50.0 °F - 46.9 °F 89% 29.72 in 3.0 mi North 9.2 mph - 0.23 in Rain Heavy Rain
1:05 AM 48.2 °F - 46.4 °F 93% 29.72 in 5.0 mi NNW 5.8 mph - 0.03 in Rain Light Rain
1:12 AM 48.2 °F - 46.4 °F 93% 29.71 in 9.0 mi North 5.8 mph - 0.03 in Rain Light Rain
1:34 AM 48.2 °F - 46.4 °F 93% 29.72 in 10.0 mi NNW 8.1 mph - 0.03 in Rain Light Rain
2:00 AM 48.2 °F - 46.4 °F 93% 29.72 in 7.0 mi North 6.9 mph - 0.00 in Rain Light Rain
2:15 AM 48.2 °F - 46.4 °F 93% 29.71 in 10.0 mi North 5.8 mph - 0.00 in   Overcast
2:53 AM 48.2 °F - 46.4 °F 93% 29.70 in 10.0 mi ENE 4.6 mph - N/A   Overcast
3:12 AM 46.4 °F 43.5 °F 44.6 °F 93% 29.72 in 10.0 mi Variable 5.8 mph - N/A   Overcast
3:53 AM 44.6 °F 42.2 °F 42.8 °F 93% 29.72 in 10.0 mi North 4.6 mph - N/A Rain Light Rain
4:53 AM 41.0 °F 38.0 °F 39.0 °F 93% 29.71 in 9.0 mi ENE 4.6 mph - 0.01 in Rain Light Rain
5:06 AM 41.0 °F 38.0 °F 37.4 °F 87% 29.71 in 10.0 mi ENE 4.6 mph - 0.00 in   Overcast
5:53 AM 39.9 °F 35.8 °F 37.9 °F 93% 29.74 in 10.0 mi North 5.8 mph - 0.00 in   Overcast
6:53 AM 39.0 °F 33.4 °F 36.0 °F 89% 29.75 in 10.0 mi NNE 8.1 mph - 0.00 in Rain Light Rain
7:19 AM 39.2 °F 35.0 °F 35.6 °F 87% 29.73 in 10.0 mi NNE 5.8 mph - 0.00 in   Overcast
7:53 AM 37.9 °F 34.4 °F 36.0 °F 93% 29.76 in 6.0 mi NNE 4.6 mph - 0.00 in Rain Light Rain
8:37 AM 37.4 °F 30.8 °F 35.6 °F 93% 29.75 in 10.0 mi NE 9.2 mph - 0.00 in   Overcast
8:53 AM 37.0 °F 33.3 °F 35.1 °F 93% 29.76 in 10.0 mi Variable 4.6 mph - 0.00 in   Overcast
9:04 AM 37.4 °F 30.8 °F 35.6 °F 93% 29.73 in 9.0 mi NE 9.2 mph - N/A   Overcast
9:53 AM 37.0 °F 31.6 °F 35.1 °F 93% 29.75 in 10.0 mi NE 6.9 mph - 0.00 in Rain Light Rain
10:40 AM 37.4 °F 32.8 °F 35.6 °F 93% 29.72 in 10.0 mi NE 5.8 mph - 0.00 in Rain Light Rain
10:53 AM 37.0 °F 31.6 °F 34.0 °F 89% 29.75 in 10.0 mi North 6.9 mph - 0.00 in Rain Light Rain
11:53 AM 37.0 °F 31.6 °F 34.0 °F 89% 29.75 in 8.0 mi NNE 6.9 mph - 0.02 in Rain Light Rain
12:48 PM 35.6 °F 29.2 °F 32.0 °F 87% 29.73 in 2.0 mi North 8.1 mph - 0.02 in Snow Light Snow
12:53 PM 35.1 °F 28.6 °F 32.0 °F 89% 29.75 in 1.8 mi North 8.1 mph - 0.03 in Snow Light Snow
1:10 PM 33.8 °F 27.0 °F 30.2 °F 87% 29.74 in 0.8 mi North 8.1 mph 17.3 mph 0.01 in Snow Light Snow
1:32 PM 33.8 °F 26.4 °F 30.2 °F 87% 29.74 in 0.2 mi North 9.2 mph - 0.02 in Fog , Snow Snow
1:50 PM 33.8 °F 27.7 °F 30.2 °F 87% 29.73 in 0.5 mi North 6.9 mph - 0.03 in Fog , Snow Light Snow
1:53 PM 33.1 °F 26.9 °F 30.9 °F 92% 29.76 in 0.8 mi North 6.9 mph - 0.03 in Snow Light Snow
2:17 PM 33.8 °F 29.6 °F 30.2 °F 87% 29.73 in 0.8 mi North 4.6 mph - 0.01 in Snow Light Snow
2:38 PM 33.8 °F 28.6 °F 30.2 °F 87% 29.72 in 0.5 mi North 5.8 mph - 0.02 in Fog , Snow Snow
2:45 PM 33.8 °F - 30.2 °F 87% 29.73 in 0.8 mi North - - 0.02 in Snow Light Snow
2:53 PM 33.1 °F 27.7 °F 30.9 °F 92% 29.76 in - North 5.8 mph - 0.02 in Snow Snow
3:00 PM 33.8 °F 28.6 °F 30.2 °F 87% 29.74 in 0.5 mi North 5.8 mph - 0.01 in Fog , Snow Snow
3:15 PM 33.8 °F 26.4 °F 30.2 °F 87% 29.75 in 1.0 mi North 9.2 mph - 0.01 in Snow Light Snow
3:23 PM 33.8 °F 25.3 °F 30.2 °F 87% 29.76 in 0.8 mi North 11.5 mph - 0.01 in Snow Light Snow
3:53 PM 32.0 °F 23.0 °F 30.0 °F 92% 29.81 in 0.5 mi NNW 11.5 mph - 0.02 in Fog , Snow Snow
4:00 PM 32.0 °F 23.6 °F 30.2 °F 93% 29.79 in 0.5 mi NNW 10.4 mph - 0.01 in Fog , Snow Snow
4:18 PM 32.0 °F 23.6 °F 30.2 °F 93% 29.79 in 1.0 mi North 10.4 mph - 0.01 in Snow Light Snow
4:37 PM 32.0 °F 23.6 °F 30.2 °F 93% 29.81 in 1.0 mi North 10.4 mph - 0.01 in Snow Light Snow
4:53 PM 32.0 °F 24.2 °F 30.0 °F 92% 29.86 in 1.0 mi North 9.2 mph - 0.01 in Snow Light Snow
5:12 PM 32.0 °F 24.8 °F 30.2 °F 93% 29.83 in 0.8 mi NNW 8.1 mph - 0.00 in Snow Light Snow
5:19 PM 32.0 °F 23.6 °F 30.2 °F 93% 29.84 in 1.2 mi NNW 10.4 mph - 0.00 in Snow Light Snow
5:38 PM 32.0 °F 23.0 °F 28.4 °F 87% 29.85 in 1.2 mi North 11.5 mph - 0.01 in Snow Light Snow
5:53 PM 32.0 °F 24.2 °F 28.9 °F 88% 29.91 in 1.8 mi North 9.2 mph - 0.01 in Snow Light Snow
6:00 PM 32.0 °F 25.6 °F 30.2 °F 93% 29.87 in 1.2 mi North 6.9 mph - 0.00 in Snow Light Snow
6:07 PM 32.0 °F 25.6 °F 30.2 °F 93% 29.87 in 1.0 mi North 6.9 mph - 0.00 in Snow Light Snow
6:21 PM 32.0 °F 25.6 °F 30.2 °F 93% 29.88 in 1.0 mi NNW 6.9 mph - 0.00 in Snow Light Snow
6:38 PM 32.0 °F 25.6 °F 30.2 °F 93% 29.90 in 2.0 mi NNW 6.9 mph - 0.00 in Snow Light Snow
6:45 PM 32.0 °F 24.2 °F 28.4 °F 87% 29.91 in 1.2 mi NNW 9.2 mph - 0.00 in Snow Light Snow
6:53 PM 32.0 °F 23.6 °F 28.9 °F 88% 29.96 in 1.5 mi North 10.4 mph - 0.00 in Snow Light Snow
7:22 PM 30.2 °F 25.4 °F 28.4 °F 93% 29.93 in 2.0 mi North 4.6 mph - 0.00 in Snow Light Snow
7:46 PM 30.2 °F 21.3 °F 28.4 °F 93% 29.95 in 4.0 mi North 10.4 mph - 0.00 in   Overcast
7:53 PM 30.2 °F 22.6 °F 28.4 °F 93% 29.95 in 9.0 mi North 8.1 mph - N/A   Overcast
8:46 PM 28.4 °F 22.2 °F 26.6 °F 93% 29.98 in 10.0 mi NW 5.8 mph - N/A   Scattered Clouds
8:53 PM 30.0 °F 25.2 °F 27.0 °F 88% 30.03 in 10.0 mi WNW 4.6 mph - N/A   Partly Cloudy
9:53 PM 30.0 °F 21.7 °F 27.0 °F 88% 30.07 in 10.0 mi NNW 9.2 mph - N/A   Mostly Cloudy
10:04 PM 30.2 °F 22.6 °F 26.6 °F 86% 30.02 in 10.0 mi North 8.1 mph - N/A   Mostly Cloudy
10:53 PM 28.9 °F - 26.1 °F 89% 30.09 in 10.0 mi Calm Calm - N/A   Mostly Cloudy
11:03 PM 28.4 °F - 26.6 °F 93% 30.04 in 10.0 mi Calm Calm - N/A   Mostly Cloudy
11:53 PM 30.0 °F 25.2 °F 27.0 °F 88% 30.10 in 10.0 mi NNW 4.6 mph - N/A   Overcast